This is the latest recevied weather packets stored in our database for station/object HB9GFF-10. If no packets are shown the sender has not sent any weather packets the latest 10 day(s).
| Time | Temp. | Humidity | Pressure | Rain* | Wind** | Luminosity | Snow |
|---|---|---|---|---|---|---|---|
| 1777542205 | 18.33° C | 33% | 959 hPa | - | - | - | - |
| 1777542139 | 18.33° C | 35% | 959 hPa | - | - | - | - |
| 1777542074 | 18.33° C | 35% | 959 hPa | - | - | - | - |
| 1777542009 | 18.89° C | 33% | 959 hPa | - | - | - | - |
| 1777541943 | 18.89° C | 32% | 959 hPa | - | - | - | - |
| 1777541878 | 20° C | 32% | 959 hPa | - | - | - | - |
| 1777541812 | 21.11° C | 32% | 959 hPa | - | - | - | - |
| 1777541747 | 20.56° C | 32% | 959 hPa | - | - | - | - |
| 1777541682 | 20.56° C | 31% | 959 hPa | - | - | - | - |
| 1777541616 | 21.11° C | 30% | 959 hPa | - | - | - | - |
| 1777541551 | 20° C | 30% | 959 hPa | - | - | - | - |
| 1777541485 | 21.11° C | 29% | 959 hPa | - | - | - | - |
| 1777541420 | 21.67° C | 29% | 959 hPa | - | - | - | - |
| 1777541355 | 22.78° C | 30% | 959 hPa | - | - | - | - |
| 1777541289 | 22.22° C | 32% | 959 hPa | - | - | - | - |
| 1777541224 | 21.67° C | 28% | 959 hPa | - | - | - | - |
| 1777541158 | 20.56° C | 30% | 959 hPa | - | - | - | - |
| 1777541093 | 21.11° C | 28% | 959 hPa | - | - | - | - |
| 1777541027 | 22.22° C | 27% | 959 hPa | - | - | - | - |
| 1777540962 | 22.78° C | 29% | 959 hPa | - | - | - | - |
| 1777540897 | 22.78° C | 29% | 959 hPa | - | - | - | - |
| 1777540831 | 22.78° C | 29% | 959 hPa | - | - | - | - |
| 1777540766 | 21.67° C | 32% | 959 hPa | - | - | - | - |
| 1777540701 | 21.11° C | 30% | 959 hPa | - | - | - | - |
| 1777540635 | 22.22° C | 30% | 959 hPa | - | - | - | - |
* Rain since midnight (hover to see other rain measurements)
** Current wind speed in m/s (hover to see current wind gust speed)